Lucknow, India

7:45 PM IST on February 12, 2016 (GMT +0530)
Lucknow

Weather History for VILK - January, 2013

Change the Weather History Date:

Thursday, January 31, 2013

  Actual Average Record
Temperature  
Mean Temperature 58 °F -  
Max Temperature 75 °F 75 °F 83 °F (2016)
Min Temperature 41 °F 54 °F 41 °F (2012)
Degree Days  
Heating Degree Days 7    
Growing Degree Days 8 (Base 50)    
Moisture  
Dew Point 48 °F    
Average Humidity 74    
Maximum Humidity 100    
Minimum Humidity 38    
Precipitation  
Precipitation 0.00 in - - ()
Sea Level Pressure  
Sea Level Pressure 30.05 in    
Wind  
Wind Speed 1 mph ()    
Max Wind Speed 5 mph    
Max Gust Speed -    
Visibility 0.8 miles    
Events Fog    
Averages and records for this station are not official NWS values.
T = Trace of Precipitation, MM = Missing Value Source: Averaged Metar Reports

Daily Weather History Graph

Daily Weather History Graph

Search for Another Location

Airport or City:

Trip Planner

Search our weather history database for the weather conditions in past years. The results will help you decide how hot, cold, wet, or windy it might be!

Date:

Astronomy

Jan. 31, 2013 Rise Set
Actual Time 6:52 AM IST 5:47 PM IST
Civil Twilight 6:27 AM IST 6:12 PM IST
Nautical Twilight 6:00 AM IST 6:40 PM IST
Astronomical Twilight 5:32 AM IST 7:07 PM IST
Moon 9:48 PM IST (1/31) 9:04 AM IST (1/31)
Length of Visible Light 11h 44m
Length of Day
10h 55m
Waning Gibbous, 83% of the Moon is Illuminated
Jan 31
Waning Gibbous
Feb 3
Last Quarter
Feb 10
New
Feb 18
First Quarter
Feb 26
Full

Hourly Weather History & Observations

Time (IST) Temp. Dew Point Humidity Pressure Visibility Wind Dir Wind Speed Gust Speed Precip Events Conditions
1:00 AM 51.8 °F 46.4 °F 82% 30.04 in 0.4 mi Calm Calm - N/A Fog Shallow Fog
2:00 AM 50.0 °F 46.4 °F 87% 30.04 in 0.4 mi Calm Calm - N/A Fog Shallow Fog
2:30 AM 49 °F 47 °F 91% 30.06 in 0 mi Calm Calm - - Fog Patches of Fog
3:00 AM 48.2 °F 46.4 °F 93% 30.04 in 0.2 mi Calm Calm - N/A Fog Fog
4:00 AM 48.2 °F 46.4 °F 93% 30.01 in 0.1 mi Calm Calm - N/A Fog Fog
5:00 AM 48.2 °F 46.4 °F 93% 30.01 in 0.1 mi West 4.6 mph - N/A Fog Fog
6:00 AM 48.2 °F 46.4 °F 93% 30.04 in - West 2.3 mph - N/A Fog Fog
7:00 AM 46.4 °F 46.4 °F 100% 30.06 in - West 2.3 mph - N/A Fog Fog
7:30 AM 44.6 °F 44.6 °F 100% 30.06 in - West 2.3 mph - N/A Fog Fog
8:00 AM 46.4 °F 44.6 °F 93% 30.06 in - Calm Calm - N/A Fog Fog
8:30 AM 47 °F 46 °F 93% 30.12 in 0 mi 2.3 mph - - Fog Heavy Fog
8:30 AM 46.4 °F 46.4 °F 100% 30.06 in - Variable 2.3 mph - N/A Fog Fog
9:00 AM 48.2 °F 46.4 °F 93% 30.09 in 0.1 mi Calm Calm - N/A Fog Fog
10:30 AM 62.6 °F 53.6 °F 72% 30.09 in 0.6 mi Variable 2.3 mph - N/A Fog Shallow Fog
11:00 AM 64.4 °F 53.6 °F 68% 30.06 in 0.7 mi NNW 3.5 mph - N/A Fog Shallow Fog
11:30 AM 69 °F 54 °F 49% 30.10 in 1 mi 2.3 mph - -   Haze
12:30 PM 71.6 °F 53.6 °F 53% 30.06 in 0.9 mi NW 3.5 mph - N/A   Haze
1:00 PM 71.6 °F 51.8 °F 50% 30.04 in 0.9 mi NW 4.6 mph - N/A   Haze
3:00 PM 73.4 °F 46.4 °F 38% 30.01 in 1.2 mi Variable 2.3 mph - N/A   Haze
4:30 PM 71.6 °F 46.4 °F 41% 30.01 in 1.9 mi WNW 4.6 mph - N/A   Haze
5:00 PM 71.6 °F 46.4 °F 41% 30.01 in 1.6 mi West 3.5 mph - N/A   Haze
5:30 PM 70 °F 50 °F 38% 30.02 in 1 mi 2.3 mph - -   Haze
5:30 PM 69.8 °F 50.0 °F 49% 30.01 in 1.6 mi Variable 2.3 mph - N/A   Haze
7:00 PM 64.4 °F 48.2 °F 56% 30.01 in 1.2 mi Variable 2.3 mph - N/A   Haze
7:30 PM 62.6 °F 48.2 °F 59% 30.01 in 1.2 mi Variable 2.3 mph - N/A   Haze
9:00 PM 59.0 °F 50.0 °F 72% 30.04 in 0.9 mi Calm Calm - N/A   Mist
10:00 PM 57.2 °F 51.8 °F 82% 30.06 in 0.9 mi Variable 2.3 mph - N/A   Mist
11:00 PM 55.4 °F 50.0 °F 82% 30.04 in 0.9 mi Calm Calm - N/A   Mist
11:30 PM 54 °F 51 °F 84% 30.08 in 1 mi Calm Calm - -   Mist